Погода в Базарном Карабулаке

Россия / Саратовская область     52°16′47″N   46°24′30″E
темп.,
°C
ветер,
м/с
пор.,
м/с
влажн.,
%
обл.,
%
осадки,
мм/ч
давл.,
гПа
погр.,
м
8 мая, сб
сб801:00+11з238198 0.1 101591
04:00+11ссз1190100 0.3 101530
07:00+11св12891 0.0 1015119
10:00+15юв226174 0.0 1015805
13:00+18ю35521 0.0 10141595
16:00+20ююз554518 0.0 10131919
19:00+17ю3657100 0.0 1013179
22:00+13ююз2362100 0.0 101344
9 мая, вс
вс901:00+13ююв2260100 0.0 101226
04:00+11юв2463100 0.0 101250
07:00+12юв3962100 0.0 1012303
10:00+17ююв6958100 0.1 1011617
13:00+18ююв6859100 0.1 1011778
16:00+21ююз61150100 0.2 10101942
19:00+12сз7982100 0.2 1013301
22:00+9ссз81380100 0.2 1014357
10 мая, пн
пн1001:00+9с71387100 0.6 1015352
04:00+8с71388100 0.8 1016447
07:00+8с81488100 0.1 1017439
10:00+9ссв81486100 0.6 1018413
13:00+12ссв101376100 0.2 1019630
16:00+13ссв101677100 0.2 1019574
19:00+13св101977100 0.0 1018546
22:00+12св112076100 0.0 1020494
11 мая, вт
вт1101:00+12св81982100 0.4 1020549
04:00+11св101986100 0.9 1021422
07:00+12св101983100 0.0 1021435
10:00+15всв81273100 0.0 1023637
13:00+19всв8106011 0.0 10221138
16:00+21в61259100 1.5 10211663
19:00+15юз3586100 1.8 1024213
22:00+13в41093100 7.8 1025601
12 мая, ср
ср1201:00+13всв3697100 2.6 1025206
04:00+13ссв3892100 3.0 1024215
07:00+14св71589100 0.4 1024391
10:00+16всв81678100 0.4 1024526
13:00+20в91362100 0.0 1024965
16:00+20в71163100 0.0 1023817
19:00+18в3872100 0.1 1023174
22:00+17всв7137478 0.4 1023339